Location: Newark
(7.0858°N, 171.3717°E)
Time: 15:34:20
(UTC+00:00)

Altair - Visible Passes

Search period start: 26 November 2020 00:00
Search period end: 06 December 2020 00:00
Orbit: 1502 x 1682 km, 47.2° (Epoch: 25 November)

Date Brightness Start Highest point End Pass type
(mag) Time Alt. Az. Time Alt. Az. Time Alt. Az.
26 Nov 7.7 07:26:00 10° SW 07:35:40 70° NW 07:42:36 20° NNE visible
26 Nov 9.4 09:36:54 10° WNW 09:40:40 13° NW 09:40:40 13° NW visible
26 Nov 9.2 16:06:15 13° N 16:11:07 19° NE 16:17:25 10° E visible
26 Nov 7.6 18:06:43 10° NW 18:16:08 88° SW 18:25:57 10° SE visible
27 Nov 7.6 07:00:44 10° SW 07:10:30 78° NW 07:19:18 12° NE visible
27 Nov 9.2 09:10:37 10° WNW 09:15:45 16° NW 09:17:21 15° NNW visible
27 Nov 9.2 15:42:56 15° NNE 15:45:49 17° NE 15:51:27 10° E visible
27 Nov 7.6 17:41:35 10° NW 17:50:58 84° NE 18:00:45 10° SE visible
28 Nov 7.6 06:35:29 10° SW 06:45:19 86° NW 06:54:46 10° NE visible
28 Nov 9.2 08:44:33 10° W 08:50:26 18° NW 08:54:01 14° NNW visible
28 Nov 9.3 15:19:39 15° NE 15:20:31 15° NE 15:25:18 10° ENE visible
28 Nov 7.6 17:17:42 15° NW 17:25:48 76° NE 17:35:30 10° SE visible
29 Nov 9.2 08:18:36 10° W 08:25:09 20° NW 08:30:38 12° N visible
29 Nov 9.5 14:56:22 12° NE 14:56:22 12° NE 14:58:56 10° ENE visible
29 Nov 7.7 16:54:26 24° NNW 17:00:39 68° NE 17:10:13 10° SE visible
30 Nov 9.1 07:52:45 10° W 07:59:53 23° NW 08:06:52 10° N visible
30 Nov 7.8 16:31:10 34° NNW 16:35:28 61° NE 16:44:55 10° SE visible
01 Dec 9.0 07:27:00 10° W 07:34:38 26° NW 07:42:05 10° N visible
01 Dec 7.8 16:07:54 45° N 16:10:18 54° NE 16:19:34 10° SE visible
01 Dec 8.4 18:06:47 10° WNW 18:14:48 32° SW 18:23:07 10° S visible
02 Dec 8.9 07:01:19 10° WSW 07:09:23 29° NW 07:17:14 10° NNE visible
02 Dec 7.9 15:44:37 48° NE 15:45:08 48° NE 15:54:11 10° ESE visible
02 Dec 8.2 17:42:40 15° WNW 17:49:37 36° SW 17:58:13 10° SSE visible
03 Dec 8.8 06:35:43 10° WSW 06:44:09 33° NW 06:52:22 10° NNE visible
03 Dec 8.3 15:21:18 41° ENE 15:21:18 41° ENE 15:28:45 10° ESE visible
03 Dec 8.0 17:19:22 24° WNW 17:24:27 41° SW 17:33:17 10° SSE visible
04 Dec 8.7 14:57:59 30° E 14:57:59 30° E 15:03:18 10° ESE visible
04 Dec 7.8 16:56:02 35° W 16:59:16 46° SW 17:08:19 10° SSE visible
05 Dec 9.2 14:34:37 21° E 14:34:37 21° E 14:37:47 10° ESE visible
05 Dec 7.6 16:32:39 48° WSW 16:34:07 51° SW 16:43:20 10° SSE visible
